Hourly Data Report for October 13, 2014

All times are specified in Local Standard Time (LST). Add 1 hour to adjust for Daylight Saving Time where and when it is observed.

KUGAARUK CLIMATE
NUNAVUT

68°32'15.060" N
89°47'47.020" W
15.80 m
2303094
71407
NBB

Download Data

Hourly Data (October 2014)
Hourly Data Report for October 13, 2014
Temp Definition
°C
Dew Point Temp Definition
°C
Rel Hum Definition
%
Wind Dir Definition
10's deg

Wind Spd Definition
km/h
Visibility Definition
km
Stn Press Definition
kPa
Hmdx Definition


Wind Chill Definition


Weather Definition


TIME
00:00 -3.1 -3.7 96 27 24   99.87   -10 LegendNANA
01:00 -3.8 -4.5 96 27 26   99.87   -11 LegendNANA
02:00 -4.2 -4.8 95 26 23   99.90   -11 LegendNANA
03:00 -4.3 -5.0 95 26 21   99.90   -11 LegendNANA
04:00 -4.2 -4.9 95 25 20   99.89   -11 LegendNANA
05:00 -4.1 -4.9 94 26 20   99.89   -10 LegendNANA
06:00 -4.2 -5.0 94 26 14   99.90   -9 LegendNANA
07:00 -4.3 -5.1 94 26 10   99.94   -8 LegendNANA
08:00 -4.2 -5.0 94 21 8   99.97   -8 LegendNANA
09:00 -3.8 -4.7 93 10 3   99.97   -5 LegendNANA
10:00 -3.3 -4.3 93 26 2   100.00   -4 LegendNANA
11:00 -3.9 -5.0 92 21 13   100.02   -9 LegendNANA
12:00 -3.9 -5.0 92 20 8   100.07   -7 LegendNANA
13:00 -3.9 -5.1 91 5 4   100.10   -6 LegendNANA
14:00 -4.1 -5.1 93 4 3   100.11   -5 LegendNANA
15:00 -4.6 -5.5 93 22 20   100.15   -11 LegendNANA
16:00 -4.9 -6.0 92 20 20   100.20   -11 LegendNANA
17:00 -5.9 -7.2 90 21 18   100.26   -12 LegendNANA
18:00 -5.8 -7.0 91 21 13   100.31   -11 LegendNANA
19:00 -7.9 -9.3 90 6 9   100.34   -12 LegendNANA
20:00 -9.5 -10.7 91 6 11   100.38   -15 LegendNANA
21:00 -9.9 -11.1 91 4 6   100.39   -13 LegendNANA
22:00 -10.0 -11.1 92 5 11   100.44   -16 LegendNANA
23:00 -9.8 -10.8 92 5 9   100.46   -15 LegendNANA

Notes on Data Quality.

Legend

  • E = Estimated
  • M = Missing
  • NA = Not Available
  • ‡ = Partner data that is not subject to review by the National Climate Archives
Date modified: